Weather History for Iron Mountain, MI

Change the Weather History Date:

Sunday, October 26, 2014

  Actual Average Record
Temperature  
Mean Temperature 46 °F -  
Max Temperature 57 °F 52 °F 76 °F (1989)
Min Temperature 33 °F 34 °F 16 °F (1962)
Degree Days  
Heating Degree Days 19    
Moisture  
Dew Point 28 °F    
Average Humidity 55    
Maximum Humidity 85    
Minimum Humidity 28    
Precipitation  
Precipitation 0.00 in - - ()
Sea Level Pressure  
Sea Level Pressure 29.91 in    
Wind  
Wind Speed 7 mph (WNW)    
Max Wind Speed 14 mph    
Max Gust Speed 18 mph    
Visibility 10 miles    
Events      
Averages and records for this station are not official NWS values.
T = Trace of Precipitation, MM = Missing Value Source: NWS Daily Summary

Daily Weather History Graph

Daily Weather History Graph

Search for Another Location

Airport:

Trip Planner

Search our weather history database for the weather conditions in past years. The results will help you decide how hot, cold, wet, or windy it might be!

Date:

Astronomy

Oct. 26, 2014 Rise Set
Actual Time 7:24 AM CDT 5:47 PM CDT
Civil Twilight 6:53 AM CDT 6:18 PM CDT
Nautical Twilight 6:18 AM CDT 6:53 PM CDT
Astronomical Twilight 5:44 AM CDT 7:27 PM CDT
Moon 10:07 AM CDT (10/26) 7:53 PM CDT (10/26)
Length of Visible Light 11h 25m
Length of Day
10h 23m
Waxing Crescent, 8% of the Moon is Illuminated
Oct 26
Waxing Crescent
Oct 30
First Quarter
Nov 6
Full
Nov 14
Last Quarter
Nov 22
New

Hourly Weather History & Observations

Time (CDT) Temp. Windchill Dew Point Humidity Pressure Visibility Wind Dir Wind Speed Gust Speed Precip Events Conditions
12:54 AM 46.0 °F 40.6 °F 27.0 °F 47% 29.90 in 10.0 mi NW 11.5 mph - N/A   Clear
1:54 AM 44.1 °F 39.5 °F 27.0 °F 51% 29.91 in 10.0 mi WNW 8.1 mph - N/A   Clear
2:54 AM 43.0 °F 38.2 °F 28.0 °F 56% 29.91 in 10.0 mi WNW 8.1 mph - N/A   Clear
3:54 AM 43.0 °F 38.2 °F 28.0 °F 56% 29.92 in 10.0 mi WNW 8.1 mph - N/A   Clear
4:54 AM 41.0 °F 36.4 °F 28.9 °F 62% 29.93 in 10.0 mi NW 6.9 mph - N/A   Clear
5:54 AM 39.0 °F 35.7 °F 28.9 °F 67% 29.94 in 10.0 mi West 4.6 mph - N/A   Clear
6:54 AM 37.9 °F 35.5 °F 28.0 °F 68% 29.94 in 10.0 mi Variable 3.5 mph - N/A   Clear
7:54 AM 37.9 °F 33.5 °F 28.0 °F 68% 29.95 in 10.0 mi NW 5.8 mph - N/A   Clear
8:54 AM 42.1 °F 37.7 °F 28.9 °F 60% 29.95 in 10.0 mi NW 6.9 mph - N/A   Clear
9:54 AM 46.0 °F 41.0 °F 30.0 °F 54% 29.96 in 10.0 mi NW 10.4 mph - N/A   Clear
10:54 AM 50.0 °F - 30.0 °F 46% 29.94 in 10.0 mi NNW 12.7 mph 18.4 mph N/A   Clear
11:54 AM 54.0 °F - 28.0 °F 37% 29.93 in 10.0 mi NNW 13.8 mph - N/A   Clear
12:54 PM 54.0 °F - 27.0 °F 35% 29.92 in 10.0 mi NW 8.1 mph - N/A   Clear
1:54 PM 57.0 °F - 26.1 °F 30% 29.91 in 10.0 mi WNW 12.7 mph 18.4 mph N/A   Clear
2:54 PM 57.0 °F - 25.0 °F 29% 29.89 in 10.0 mi WNW 5.8 mph - N/A   Clear
3:54 PM 57.9 °F - 25.0 °F 28% 29.89 in 10.0 mi WNW 10.4 mph - N/A   Clear
4:54 PM 55.9 °F - 26.1 °F 32% 29.88 in 10.0 mi WNW 3.5 mph - N/A   Clear
5:54 PM 48.0 °F - 30.0 °F 50% 29.89 in 10.0 mi Calm Calm - N/A   Clear
6:54 PM 43.0 °F - 28.0 °F 56% 29.90 in 10.0 mi Calm Calm - N/A   Clear
7:54 PM 37.9 °F - 28.0 °F 68% 29.89 in 10.0 mi Calm Calm - N/A   Clear
8:54 PM 37.0 °F 34.5 °F 30.0 °F 76% 29.89 in 10.0 mi SSW 3.5 mph - N/A   Clear
9:54 PM 35.1 °F - 28.9 °F 78% 29.88 in 10.0 mi Calm Calm - N/A   Clear
10:54 PM 35.1 °F - 30.9 °F 85% 29.86 in 10.0 mi Calm Calm - N/A   Clear
11:54 PM 33.1 °F 30.0 °F 28.9 °F 85% 29.86 in 10.0 mi South 3.5 mph - N/A   Clear